Overview Statistics Trail Chart Weather Telemetry Raw packets
 

This is the latest recevied weather packets stored in our database for station/object N7WGJ. If no packets are shown the sender has not sent any weather packets the latest 10 day(s).

<< 14 15 16 17 18 19 20 >>
Time Temp. Humidity Pressure Rain* Wind** Luminosity Snow
1788462103 16.11° C 76% 1010 hPa 0 mm - - -
1788461498 16.11° C 76% 1010 hPa 0 mm - - -
1788460920 16.11° C 75% 1010 hPa 0 mm - - -
1788460301 16.11° C 76% 1010 hPa 0 mm - - -
1788459699 16.67° C 73% 1010 hPa 0 mm - - -
1788459100 16.67° C 76% 1009.9 hPa 0 mm - - -
1788458500 15.56° C 78% 1009.9 hPa 0 mm - - -
1788457895 15.56° C 79% 1009.9 hPa 0 mm - - -
1788457286 15° C 83% 1009.8 hPa 0 mm - - -
1788456702 14.44° C 84% 1009.8 hPa 0 mm - - -
1788456104 14.44° C 86% 1009.8 hPa 0 mm - - -
1788455502 14.44° C 86% 1009.7 hPa 0 mm - - -
1788454899 13.89° C 87% 1009.6 hPa 0 mm - - -
1788454290 13.89° C 88% 1009.6 hPa 0 mm - - -
1788453690 13.89° C 90% 1009.5 hPa 0 mm - - -
1788453089 13.89° C 91% 1009.6 hPa 0 mm - - -
1788452488 13.33° C 91% 1009.6 hPa 0 mm - - -
1788451889 13.33° C 92% 1009.7 hPa 0 mm - - -
1788451307 13.33° C 93% 1009.6 hPa 0 mm - - -
1788450703 12.78° C 94% 1009.6 hPa 0 mm - - -
1788450084 12.78° C 93% 1009.6 hPa 0 mm - - -
1788449498 12.78° C 93% 1009.6 hPa 0 mm - - -
1788448899 12.78° C 93% 1009.5 hPa 0.25 mm - - -
1788448302 12.78° C 93% 1009.6 hPa 0.25 mm - - -
1788447701 12.78° C 93% 1009.5 hPa 0.25 mm - - -

* Rain latest hour (hover to see other rain measurements)
** Current wind speed in m/s (hover to see current wind gust speed)